[[{"header":{"parameterUnit":"m.s-1","parameterCategory":1,"la1":30.2991,"la2":30.254,"lo1":-89.0895,"lo2":-89.0444,"dy":0.0017,"dx":0.0017,"nx":28,"ny":28,"refTime":"2023-04-01T21:00:00:Z","depth":0,"parameterNumber":2,"parameterNumberName":"U-component_of_WINDS"},"data":[0,0,0,0,0,0,0,0,0,0,0,0,0,0,0,0,0,0,0,0,0,0,0,0,0,0,0,0,0,0,0,0,0,0,0,0,0,0,0,0,0,0,0,0,0,0,0,0,0,0,0,0,0,0,0,0,0,0,-4.6282,-4.6284,0,-4.6436,-4.6437,-4.6439,-4.6446,-4.6444,-4.6442,-4.644,-4.6596,-4.6601,-4.6607,0,0,0,0,0,0,0,0,0,0,0,0,0,-4.5994,-4.6,-4.6282,-4.6284,-4.6286,-4.6435,-4.6438,-4.644,-4.6446,-4.6444,-4.6441,-4.6439,-4.6594,-4.6601,-4.6608,0,0,0,0,0,0,0,0,0,0,0,0,0,-4.6131,-4.6001,-4.6282,-4.6307,-4.6311,-4.6435,-4.6438,-4.644,-4.6446,-4.6444,-4.6441,-4.6438,-4.6592,-4.66,-4.6609,-4.6717,0,0,-4.6635,-4.6639,0,0,0,0,0,0,0,0,-4.6123,-4.6141,-4.6302,-4.6306,-4.631,-4.6419,-4.6393,-4.6533,-4.6447,-4.6395,-4.644,-4.6437,-4.6539,-4.6552,-4.6587,-4.6725,-4.6731,-4.6636,-4.6641,-4.6645,-4.6648,0,0,0,0,0,0,0,-4.6113,-4.6135,-4.6343,-4.6304,-4.6309,-4.6311,-4.6327,-4.642,-4.648,-4.6399,-4.64,-4.6418,-4.6541,-4.6578,-4.659,-4.6734,-4.6636,-4.6644,-4.6649,-4.6653,-4.6968,-4.6971,0,0,0,0,0,0,-4.6099,-4.6127,-4.6338,-4.6348,-4.6208,-4.6318,-4.6337,-4.6387,-4.6479,-4.6491,-4.642,-4.6418,-4.6564,-4.658,-4.6596,-4.6728,-4.6645,-4.6653,-4.6658,-4.6965,-4.6969,-4.6972,0,0,0,0,0,0,-4.6093,-4.6118,-4.6332,-4.6238,-4.6265,-4.6326,-4.6382,-4.6391,-4.6428,-4.6495,-4.6506,-4.6447,-4.6563,-4.6583,-4.6687,-4.6733,-4.6657,-4.6665,-4.6961,-4.6966,-4.697,-4.6993,0,0,0,0,0,0,-4.6085,-4.6116,-4.6158,-4.6238,-4.627,-4.6421,-4.6385,-4.6396,-4.6444,-4.6442,-4.6523,-4.6534,-4.6562,-4.6674,-4.6696,-4.6744,-4.6672,-4.6957,-4.6963,-4.6969,-4.6988,-4.6998,-4.7006,0,0,0,0,0,-4.6074,-4.6158,-4.616,-4.6185,-4.6323,-4.6423,-4.6441,-4.6472,-4.6447,-4.649,-4.6533,-4.6532,-4.6726,-4.6684,-4.6709,-4.676,-4.6954,-4.6962,-4.6968,-4.6984,-4.6996,-4.7006,0,0,0,0,0,0,-4.608,-4.6169,-4.6172,-4.6284,-4.6346,-4.6424,-4.6478,-4.6484,-4.6554,-4.6549,-4.6584,-4.6603,-4.6705,-4.6744,-4.6697,-4.687,-4.6837,-4.6849,-4.6841,-4.6852,-4.6861,-4.6848,-4.6679,0,0,0,0,0,-4.6094,-4.6168,-4.6242,-4.6333,-4.6365,-4.6416,-4.6461,-4.648,-4.6545,-4.6571,-4.6622,-4.6686,-4.6761,-4.6809,-4.6882,-4.6995,-4.7012,-4.7043,-4.7052,-4.7059,-4.7068,-4.713,-4.7143,-4.6995,-4.6995,-4.6995,0,0,-4.6124,-4.6182,-4.6226,-4.6336,-4.6386,-4.6461,-4.6438,-4.6519,-4.6575,-4.6584,-4.6684,-4.6724,-4.6797,-4.6905,-4.6956,-4.6941,-4.7113,-4.7068,-4.7073,-4.7078,-4.7138,-4.7152,-4.7165,-4.7,-4.6999,-4.6998,0,0,-4.6216,-4.6268,-4.635,-4.6401,-4.6478,-4.6512,-4.6532,-4.661,-4.6637,-4.6739,-4.6747,-4.6814,-4.6943,-4.6995,-4.7038,-4.7152,-4.7153,-4.7175,-4.722,-4.728,-4.7291,-4.7302,-4.734,-4.7354,-4.7185,-4.7185,-4.7185,0,-4.6243,-4.6357,-4.6391,-4.6472,-4.6519,-4.6532,-4.6615,-4.6663,-4.676,-4.6792,-4.6775,-4.6937,-4.6987,-4.7107,-4.7135,-4.7171,-4.7193,-4.7164,-4.7287,-4.7298,-4.7308,-4.7345,-4.736,-4.7187,-4.7187,-4.7186,-4.7186,0,-4.6385,-4.6465,-4.6521,-4.6614,-4.6669,-4.675,-4.6796,-4.6848,-4.6863,-4.6898,-4.7002,-4.7063,-4.7148,-4.7179,-4.7194,-4.7302,-4.729,-4.728,-4.7246,-4.7324,-4.7359,-4.7374,-4.719,-4.7189,-4.7188,-4.7188,0,0,-4.6482,-4.6595,-4.6614,-4.6657,-4.6744,-4.6805,-4.6888,-4.6972,-4.7014,-4.7082,-4.715,-4.726,-4.7251,-4.73,-4.7322,-4.7375,-4.7459,-4.7358,-4.736,-4.7372,-4.7579,-4.7584,-4.76,-4.7462,-4.7465,-4.7467,-4.7572,0,-4.6581,-4.6727,-4.6761,-4.6886,-4.6959,-4.6974,-4.7045,-4.7106,-4.7143,-4.721,-4.7251,-4.7327,-4.7311,-4.734,-4.7393,-4.7437,-4.75,-4.7431,-4.7524,-4.7527,-4.7502,-4.7619,-4.7624,-4.772,-4.7587,-4.7589,-4.7591,0,-4.6716,-4.6786,-4.6919,-4.6996,-4.7028,-4.7092,-4.7171,-4.7236,-4.7306,-4.7329,-4.7385,-4.7401,-4.7487,-4.7452,-4.757,-4.7522,-4.7563,-4.7591,-4.7595,-4.7602,-4.7561,-4.7626,-4.7752,-4.7765,-4.7613,-4.7611,-4.761,0,-4.677,-4.6898,-4.6994,-4.703,-4.7123,-4.7168,-4.7209,-4.7276,-4.7324,-4.7395,-4.7426,-4.7506,-4.7549,-4.761,-4.7647,-4.7619,-4.7762,-4.773,-4.7782,-4.7781,-4.7808,-4.7805,-4.7939,-4.784,-4.784,-4.784,-4.7839,0,-4.6875,-4.6955,-4.7019,-4.7077,-4.7167,-4.7206,-4.7294,-4.7335,-4.7395,-4.7461,-4.7481,-4.7542,-4.759,-4.7658,-4.7689,-4.7781,-4.7801,-4.7821,-4.7827,-4.7817,-4.7814,-4.7842,-4.7835,-4.7843,-4.7843,-4.7842,-4.7841,0,-4.6948,-4.6995,-4.7099,-4.718,-4.7203,-4.7265,-4.7334,-4.7391,-4.7429,-4.7513,-4.7535,-4.7595,-4.7677,-4.7721,-4.7824,-4.7844,-4.7947,-4.7951,-4.7923,-4.7925,-4.7973,-4.7966,-4.8126,-4.8148,-4.8037,-4.8038,-4.8039,0,-4.7011,-4.7073,-4.716,-4.7206,-4.7248,-4.7322,-4.7372,-4.7414,-4.7465,-4.755,-4.7597,-4.768,-4.7748,-4.7878,-4.793,-4.8009,-4.8014,-4.8064,-4.8025,-4.8013,-4.8011,-4.8006,-4.8011,-4.807,-4.8071,-4.8071,-4.8072,0,-4.7116,-4.7136,-4.7207,-4.7287,-4.7346,-4.7411,-4.7475,-4.7512,-4.7564,-4.762,-4.7704,-4.7757,-4.7863,-4.7944,-4.8028,-4.807,-4.8079,-4.8085,-4.81,-4.8089,-4.8068,-4.8078,-4.7938,-4.808,-4.8079,-4.8078,-4.8078,-4.8078,-4.7184,-4.7239,-4.731,-4.7388,-4.7441,-4.7501,-4.7558,-4.7604,-4.7675,-4.7764,-4.7785,-4.7873,-4.7943,-4.8055,-4.81,-4.817,-4.816,-4.8183,-4.8188,-4.8192,-4.8193,-4.8061,-4.8185,-4.8185,-4.8185,-4.8185,-4.8185,0,-4.7288,-4.7334,-4.7407,-4.7496,-4.7558,-4.7564,-4.7635,-4.7686,-4.7764,-4.7828,-4.7895,-4.7992,-4.8072,-4.8131,-4.8213,-4.8257,-4.8263,-4.8277,-4.8272,-4.8281,-4.8198,-4.8175,-4.827,-4.827,-4.827,-4.827,-4.827,-4.827,-4.7349,-4.7442,-4.7471,-4.7591,-4.7637,-4.7723,-4.7764,-4.7819,-4.787,-4.7977,-4.8044,-4.8083,-4.8145,-4.8231,-4.8305,-4.8321,-4.8348,-4.8361,-4.8376,-4.8297,-4.8287,-4.8278,-4.8257,-4.8367,-4.8367,-4.8453,-4.8454,-4.8455]},{"header":{"parameterUnit":"m.s-1","parameterCategory":1,"la1":30.2991,"la2":30.254,"lo1":-89.0895,"lo2":-89.0444,"dy":0.0017,"dx":0.0017,"nx":28,"ny":28,"refTime":"2023-04-01T21:00:00:Z","depth":0,"parameterNumber":3,"parameterNumberName":"V-component_of_WINDS"},"data":[0,0,0,0,0,0,0,0,0,0,0,0,0,0,0,0,0,0,0,0,0,0,0,0,0,0,0,0,0,0,0,0,0,0,0,0,0,0,0,0,0,0,0,0,0,0,0,0,0,0,0,0,0,0,0,0,0,0,3.4773,3.4774,0,3.4863,3.4864,3.4865,3.4861,3.486,3.4859,3.4858,3.4946,3.4949,3.4953,0,0,0,0,0,0,0,0,0,0,0,0,0,3.4595,3.4598,3.4773,3.4774,3.4775,3.4863,3.4864,3.4865,3.4862,3.486,3.4858,3.4857,3.4945,3.4949,3.4953,0,0,0,0,0,0,0,0,0,0,0,0,0,3.4677,3.4599,3.4773,3.4784,3.4786,3.4863,3.4864,3.4866,3.4862,3.486,3.4858,3.4856,3.4943,3.4948,3.4954,3.5024,0,0,3.497,3.4972,0,0,0,0,0,0,0,0,3.4673,3.4684,3.4781,3.4783,3.4786,3.4849,3.4834,3.4919,3.4862,3.4833,3.4858,3.4855,3.4915,3.4922,3.4943,3.5028,3.5032,3.497,3.4973,3.4976,3.4977,0,0,0,0,0,0,0,3.4667,3.468,3.4808,3.4782,3.4785,3.4784,3.4793,3.485,3.4883,3.4835,3.4835,3.4846,3.4916,3.4938,3.4945,3.5033,3.497,3.4975,3.4978,3.498,3.5183,3.5185,0,0,0,0,0,0,3.4659,3.4675,3.4806,3.4811,3.4723,3.4788,3.4799,3.4831,3.4883,3.4889,3.4848,3.4846,3.493,3.4939,3.4948,3.5036,3.4976,3.4981,3.4984,3.5181,3.5183,3.5186,0,0,0,0,0,0,3.4656,3.4671,3.4802,3.4743,3.476,3.4794,3.4829,3.4833,3.4856,3.4892,3.4898,3.4865,3.4929,3.4941,3.5006,3.5039,3.4983,3.4988,3.5178,3.5181,3.5184,3.521,0,0,0,0,0,0,3.465,3.467,3.4697,3.4744,3.4763,3.4859,3.4831,3.4836,3.4866,3.4864,3.491,3.4915,3.4928,3.4998,3.5011,3.5045,3.4992,3.5175,3.5179,3.5183,3.5206,3.5214,3.522,0,0,0,0,0,3.4644,3.4699,3.4698,3.4714,3.4798,3.4861,3.4871,3.4887,3.4868,3.4896,3.492,3.4914,3.5033,3.5005,3.502,3.5055,3.5173,3.5178,3.5183,3.5203,3.5212,3.522,0,0,0,0,0,0,3.4653,3.4705,3.4705,3.4777,3.4815,3.486,3.4895,3.4895,3.4938,3.4934,3.495,3.496,3.5026,3.5047,3.5015,3.5127,3.5101,3.5109,3.5111,3.512,3.5127,3.512,3.4996,0,0,0,0,0,3.4664,3.4711,3.4754,3.4813,3.4833,3.4861,3.4888,3.4897,3.4936,3.4952,3.498,3.5017,3.5063,3.5093,3.5137,3.521,3.522,3.5242,3.5249,3.5254,3.5261,3.5303,3.5313,3.5202,3.5202,3.5202,0,0,3.4686,3.472,3.4749,3.4816,3.4846,3.4895,3.4874,3.4925,3.4961,3.4959,3.5023,3.5045,3.5087,3.5157,3.519,3.5177,3.5294,3.526,3.5265,3.5268,3.5309,3.5319,3.5329,3.5205,3.5205,3.5204,0,0,3.475,3.4781,3.4835,3.4867,3.4913,3.4932,3.4945,3.4991,3.5007,3.5072,3.5071,3.5114,3.5192,3.5223,3.5249,3.5329,3.5326,3.5343,3.5378,3.5419,3.5428,3.5436,3.5465,3.5475,3.535,3.535,3.535,0,3.4771,3.4845,3.4862,3.4915,3.4945,3.4948,3.5003,3.5032,3.509,3.511,3.5096,3.5197,3.5225,3.5303,3.5323,3.5344,3.5359,3.5337,3.5425,3.5433,3.5441,3.5469,3.548,3.5351,3.5351,3.5351,3.5351,0,3.4869,3.492,3.4958,3.5017,3.5051,3.5104,3.513,3.5162,3.5169,3.5189,3.5256,3.5291,3.5343,3.5363,3.5368,3.5442,3.5433,3.5422,3.5395,3.5453,3.548,3.5491,3.5354,3.5353,3.5353,3.5352,0,0,3.494,3.501,3.5023,3.5051,3.5104,3.5144,3.5198,3.5251,3.5279,3.5319,3.5365,3.5433,3.5424,3.5454,3.5463,3.5499,3.5562,3.5484,3.5485,3.5497,3.5646,3.5654,3.5667,3.556,3.5562,3.5564,3.5643,0,3.501,3.5108,3.5126,3.5211,3.5259,3.5263,3.5311,3.5348,3.5369,3.5413,3.5435,3.5484,3.5468,3.5486,3.5522,3.5546,3.5592,3.5541,3.5602,3.5604,3.5592,3.568,3.5689,3.5762,3.5653,3.5655,3.5656,0,3.5105,3.5151,3.5241,3.529,3.5311,3.5353,3.5405,3.5446,3.5489,3.5502,3.5537,3.5543,3.5599,3.5571,3.5649,3.5614,3.5641,3.5657,3.566,3.5666,3.5634,3.5689,3.5785,3.5796,3.5673,3.5672,3.567,0,3.5149,3.5233,3.5298,3.5322,3.538,3.541,3.5435,3.5477,3.5509,3.5553,3.5574,3.5624,3.5651,3.5689,3.5709,3.5686,3.5786,3.5759,3.5798,3.5798,3.5818,3.5816,3.592,3.5835,3.5835,3.5835,3.5834,0,3.5226,3.5281,3.5319,3.5359,3.5421,3.5442,3.5503,3.5528,3.5565,3.561,3.5616,3.5658,3.5682,3.5727,3.5742,3.5805,3.5817,3.5829,3.5832,3.5829,3.5827,3.5846,3.5841,3.5838,3.5837,3.5836,3.5836,0,3.5285,3.5313,3.5385,3.5435,3.5449,3.5493,3.5536,3.5575,3.5597,3.5654,3.5668,3.5703,3.5756,3.578,3.5845,3.5856,3.5928,3.5928,3.5914,3.5916,3.5954,3.595,3.6073,3.609,3.5993,3.5994,3.5995,0,3.5333,3.5376,3.5432,3.5463,3.5491,3.5541,3.5574,3.5596,3.563,3.5684,3.5717,3.5772,3.5816,3.5902,3.5932,3.5983,3.5984,3.6023,3.5991,3.5987,3.5985,3.5983,3.5987,3.6029,3.603,3.6031,3.6031,0,3.5414,3.5427,3.5475,3.5529,3.5569,3.5611,3.5653,3.5678,3.5708,3.5746,3.5802,3.5837,3.5906,3.596,3.6013,3.6038,3.604,3.6042,3.6053,3.605,3.6041,3.6047,3.5931,3.6038,3.6038,3.6037,3.6037,3.6036,3.5469,3.5509,3.5555,3.5609,3.5644,3.5684,3.5724,3.5752,3.58,3.5859,3.5869,3.5929,3.5973,3.6045,3.6072,3.6119,3.611,3.6126,3.6131,3.6135,3.6138,3.6034,3.6129,3.6129,3.6129,3.6128,3.6128,0,3.5552,3.5583,3.5633,3.5693,3.5735,3.5735,3.5783,3.5818,3.5872,3.5913,3.5958,3.6023,3.6076,3.6112,3.6166,3.6197,3.6199,3.621,3.6208,3.6214,3.6143,3.6128,3.6208,3.6208,3.6208,3.6207,3.6207,3.6207,3.56,3.5667,3.5685,3.577,3.58,3.586,3.5888,3.5924,3.5958,3.6031,3.6076,3.61,3.6139,3.6196,3.6245,3.6254,3.6274,3.6286,3.6294,3.6227,3.6219,3.6211,3.6197,3.629,3.629,3.6362,3.6363,3.6363]}]]